Back to catalog

STARLINK-34060

AliveCommunicationsVLEO
NORAD 63815·PAYLOAD·🇺🇸 United States

Launched May 4, 2025 from Cape Canaveral Space Force Station

Loading…

Next Passes (next 24 hours)

TLE

FreshSource: CelesTrak SupGP

Epoch: Sep 14, 2026, 21:19 UTC

1 63815C 25092M   26257.88868056 -.00015894  00000+0 -57551-3 0  2573
2 63815  42.9994 183.7745 0001214 264.1389  84.4478 15.27595898    13

Track STARLINK-34060 in real time with AllMySat

Download on the App Store